| time (UTC) | temp F | wind direction | speed knots | gust knots | rain 1hr in | rain 24hr in | rain mn in | humidity % | barometer mb |
| 20260504034502 | 69 | 160 | 1.7 | 7.8 | 0.00 | 0.00 | 0.00 | 66 | 1017.9 |
| 20260504033001 | 69 | 170 | 3.5 | 7.8 | 0.00 | 0.00 | 0.00 | 65 | 1017.8 |
| 20260504031501 | 70 | 161 | 0.9 | 7.8 | 0.00 | 0.00 | 0.00 | 64 | 1017.6 |
| 20260504030101 | 70 | 167 | 2.6 | 7.0 | 0.00 | 0.00 | 0.00 | 63 | 1017.6 |
| 20260504024600 | 70 | 156 | 0.9 | 6.1 | 0.00 | 0.00 | 0.00 | 61 | 1017.4 |
| 20260504023103 | 71 | 139 | 1.7 | 6.1 | 0.00 | 0.00 | 0.00 | 60 | 1017.4 |
| 20260504021558 | 70 | 144 | 1.7 | 4.3 | 0.00 | 0.00 | 0.00 | 60 | 1017.4 |
| 20260504020100 | 70 | 146 | 0.0 | 0.0 | 0.00 | 0.00 | 0.00 | 62 | 1017.2 |
| 20260504014605 | 70 | 146 | 0.0 | 0.0 | 0.00 | 0.00 | 0.00 | 60 | 1016.9 |
| 20260504013101 | 71 | 146 | 0.0 | 0.9 | 0.00 | 0.00 | 0.00 | 58 | 1016.9 |
| 20260504011558 | 72 | 146 | 0.0 | 1.7 | 0.00 | 0.00 | 0.00 | 55 | 1016.8 |
| 20260504010056 | 74 | 146 | 0.9 | 1.7 | 0.00 | 0.00 | 0.00 | 53 | 1016.7 |
| 20260504004555 | 75 | 146 | 0.0 | 3.5 | 0.00 | 0.00 | 0.00 | 50 | 1016.9 |
| 20260504003102 | 75 | 145 | 0.9 | 4.3 | 0.00 | 0.00 | 0.00 | 48 | 1016.8 |
| 20260504001606 | 76 | 155 | 1.7 | 6.1 | 0.00 | 0.00 | 0.00 | 46 | 1016.8 |
| 20260504000111 | 77 | 158 | 1.7 | 7.0 | 0.00 | 0.00 | 0.00 | 45 | 1016.7 |
| 20260503234550 | 78 | 173 | 3.5 | 8.7 | 0.00 | 0.00 | 0.00 | 44 | 1017.1 |
| 20260503233048 | 78 | 144 | 2.6 | 6.1 | 0.00 | 0.00 | 0.00 | 43 | 1017.3 |
| 20260503231548 | 78 | 184 | 6.1 | 10.4 | 0.00 | 0.00 | 0.00 | 40 | 1017.4 |
| 20260503230047 | 78 | 131 | 1.7 | 9.6 | 0.00 | 0.00 | 0.00 | 41 | 1017.5 |
| 20260503224547 | 79 | 182 | 4.3 | 8.7 | 0.00 | 0.00 | 0.00 | 42 | 1017.6 |
| 20260503223044 | 78 | 173 | 3.5 | 7.8 | 0.00 | 0.00 | 0.00 | 43 | 1017.6 |
| 20260503221551 | 78 | 130 | 3.5 | 9.6 | 0.00 | 0.00 | 0.00 | 45 | 1017.9 |
| 20260503220040 | 78 | 190 | 3.5 | 7.8 | 0.00 | 0.00 | 0.00 | 42 | 1018.3 |
| 20260503214537 | 78 | 174 | 2.6 | 20.0 | 0.00 | 0.00 | 0.00 | 44 | 1018.4 |
| 20260503213034 | 78 | 137 | 4.3 | 7.8 | 0.00 | 0.00 | 0.00 | 44 | 1018.8 |
| 20260503211532 | 78 | 127 | 4.3 | 7.8 | 0.00 | 0.00 | 0.00 | 45 | 1019.2 |
| 20260503210030 | 77 | 121 | 1.7 | 7.0 | 0.00 | 0.00 | 0.00 | 46 | 1019.3 |
| 20260503204530 | 77 | 159 | 1.7 | 6.1 | 0.00 | 0.00 | 0.00 | 45 | 1019.8 |
| 20260503203027 | 77 | 167 | 2.6 | 8.7 | 0.00 | 0.00 | 0.00 | 43 | 1020.2 |
| 20260503201523 | 77 | 188 | 2.6 | 8.7 | 0.00 | 0.00 | 0.00 | 42 | 1020.3 |
| 20260503200021 | 76 | 139 | 3.5 | 9.6 | 0.00 | 0.00 | 0.00 | 44 | 1020.6 |
| 20260503194519 | 77 | 190 | 1.7 | 9.6 | 0.00 | 0.00 | 0.00 | 44 | 1021.0 |
| 20260503193034 | 76 | 182 | 2.6 | 8.7 | 0.00 | 0.00 | 0.00 | 43 | 1021.4 |
| 20260503191515 | 76 | 192 | 3.5 | 8.7 | 0.00 | 0.00 | 0.00 | 45 | 1021.2 |
| 20260503190012 | 76 | 207 | 3.5 | 7.8 | 0.00 | 0.00 | 0.00 | 43 | 1021.5 |
| 20260503184520 | 76 | 155 | 4.3 | 8.7 | 0.00 | 0.00 | 0.00 | 48 | 1021.8 |
| 20260503183011 | 75 | 183 | 3.5 | 9.6 | 0.00 | 0.00 | 0.00 | 47 | 1021.9 |
| 20260503181507 | 75 | 159 | 2.6 | 7.8 | 0.00 | 0.00 | 0.00 | 47 | 1022.4 |
| 20260503180015 | 75 | 195 | 2.6 | 7.8 | 0.00 | 0.00 | 0.00 | 48 | 1022.5 |
| 20260503174506 | 74 | 179 | 3.5 | 8.7 | 0.00 | 0.00 | 0.00 | 50 | 1022.9 |
| 20260503173011 | 74 | 197 | 2.6 | 5.2 | 0.00 | 0.00 | 0.00 | 48 | 1023.1 |
| 20260503171600 | 74 | 195 | 2.6 | 7.8 | 0.00 | 0.00 | 0.00 | 52 | 1023.5 |
| 20260503090105 | 54 | 117 | 0.0 | 0.0 | 0.00 | 0.00 | 0.00 | 86 | 1021.6 |
| 20260503081552 | 55 | 117 | 0.0 | 0.0 | 0.00 | 0.00 | 0.00 | 86 | 1021.8 |
| 20260503071552 | 55 | 117 | 0.0 | 0.0 | 0.00 | 0.00 | 0.00 | 85 | 1022.5 |
| 20260503070103 | 56 | 117 | 0.0 | 0.0 | 0.00 | 0.00 | 0.00 | 85 | 1022.7 |
| 20260503054541 | 57 | 117 | 0.0 | 0.0 | 0.00 | 0.00 | 0.00 | 82 | 1022.9 |
| 20260503053035 | 58 | 117 | 0.0 | 0.0 | 0.00 | 0.00 | 0.00 | 81 | 1022.7 |
| 20260503051535 | 57 | 117 | 0.0 | 0.0 | 0.00 | 0.00 | 0.00 | 81 | 1022.7 |
| 20260503050032 | 58 | 117 | 0.0 | 0.0 | 0.00 | 0.00 | 0.00 | 81 | 1022.6 |
| 20260503044539 | 59 | 117 | 0.0 | 0.0 | 0.00 | 0.00 | 0.00 | 81 | 1022.6 |
| 20260503043030 | 59 | 117 | 0.0 | 0.0 | 0.00 | 0.00 | 0.00 | 81 | 1022.6 |
| 20260503041530 | 59 | 117 | 0.0 | 0.0 | 0.00 | 0.00 | 0.00 | 80 | 1022.5 |
| 20260503040031 | 60 | 117 | 0.0 | 0.0 | 0.00 | 0.00 | 0.00 | 80 | 1022.7 |